Location: eljas
(40.1958°N, 6.8661°W)
Time: 17:01:06
(UTC+02:00)

Amateur Radio Satellites - All Passes

Search period start: 05 July 2015 16:31
Search period end: 06 July 2015 16:31
Location: eljas, 40.1958°N, 6.8661°W

Satellite Date Start Highest point End Downlink Frequencies (MHz)
Time Altitude Azimuth
BEESAT 05 Jul 16:34:28 16:39:17 71° 285° (WNW) 16:44:02 436.000
YUBILEINY 05 Jul 16:40:39 16:49:26 81° 265° (W) 16:58:13 435.215
PCSat 05 Jul 16:47:16 16:52:12 38° 112° (ESE) 16:57:14 145.827
STARS 05 Jul 16:49:32 16:52:17 17° 92° (E) 16:55:11 437.465
SWISSCUBE 05 Jul 16:50:24 16:54:59 44° 289° (WNW) 16:59:31 437.505
AIST 1 05 Jul 16:51:54 16:55:52 34° 92° (E) 16:59:54
BEESAT 3 05 Jul 16:53:51 16:57:10 24° 47° (NE) 17:00:30 437.485
ITUPSAT 1 05 Jul 16:56:08 17:00:43 44° 289° (WNW) 17:05:15 437.325
Cosmos 2491 05 Jul 17:00:38 17:09:24 74° 94° (E) 17:18:12 435.465 / 435.565
BEESAT 2 05 Jul 17:07:12 17:10:39 26° 48° (NE) 17:14:06 435.950
JAS-2 05 Jul 17:07:17 17:12:25 83° 77° (ENE) 17:17:52 435.910
HORYU 2 05 Jul 17:33:26 17:37:50 83° 255° (WSW) 17:42:18 437.375
KKS-1 05 Jul 17:34:47 17:39:13 90° 32° (NNE) 17:43:39 437.445
Gurwin Techsat 1B 05 Jul 17:42:43 17:44:57 12° 273° (W) 17:46:52 435.225
ITAMSAT 1 05 Jul 17:43:45 17:45:49 12° 273° (W) 17:47:32 435.822/435.867
Cosmos 2504 05 Jul 17:53:17 18:00:01 36° 73° (ENE) 18:07:18 435.465 / 435.565
AO-7 05 Jul 17:55:12 18:03:31 69° 256° (WSW) 18:11:53 29.400- 29.500
MOZHAYETS 4 05 Jul 17:59:28 18:02:28 17° 91° (E) 18:05:37
STARS 05 Jul 18:24:50 18:28:58 42° 288° (WNW) 18:33:04 437.465
AIST 1 05 Jul 18:30:25 18:33:40 19° 289° (WNW) 18:36:49
PCSat 05 Jul 18:30:54 18:35:43 31° 309° (NW) 18:40:29 145.827
AIST 2 05 Jul 18:31:23 18:35:27 46° 53° (NE) 18:39:28 435.215
BEESAT 3 05 Jul 18:31:33 18:35:10 31° 245° (WSW) 18:38:42 437.485
SO-50 05 Jul 18:33:55 18:38:39 88° 299° (WNW) 18:43:34 436.795
O/OREOS (USA 219) 05 Jul 18:36:23 18:40:45 47° 64° (ENE) 18:45:09 437.305
YUBILEINY 05 Jul 18:40:30 18:45:03 15° 282° (WNW) 18:48:58 435.215
CUTE-I 05 Jul 18:44:02 18:47:42 20° 64° (ENE) 18:51:33 437.470
BEESAT 2 05 Jul 18:45:08 18:48:43 29° 246° (WSW) 18:52:11 435.950
Cosmos 2491 05 Jul 19:00:22 19:07:18 24° 296° (WNW) 19:13:54 435.465 / 435.565
Cubesat XI-IV 05 Jul 19:17:05 19:21:58 38° 69° (ENE) 19:26:57 437.490
MOZHAYETS 4 05 Jul 19:35:30 19:39:58 45° 287° (WNW) 19:44:23
Cosmos 2504 05 Jul 19:45:15 19:52:21 44° 270° (W) 19:59:50 435.465 / 435.565
AO-7 05 Jul 19:55:28 19:58:05 11° 276° (W) 19:59:55 29.400- 29.500
CUBESAT XI-V 05 Jul 20:05:03 20:09:08 30° 95° (E) 20:13:15 437.345
AIST 2 05 Jul 20:11:02 20:13:40 16° 249° (WSW) 20:16:07 435.215
O/OREOS (USA 219) 05 Jul 20:16:59 20:19:50 16° 259° (W) 20:22:30 437.305
SO-50 05 Jul 20:17:09 20:19:59 15° 323° (NW) 20:22:44 436.795
CUTE-I 05 Jul 20:22:08 20:27:23 56° 259° (W) 20:32:42 437.470
DANDE 05 Jul 20:52:59 20:55:43 63° 79° (E) 20:58:17 436.750
GOMX 1 05 Jul 20:53:36 20:57:21 22° 69° (ENE) 21:01:04 467.674
Cubesat XI-IV 05 Jul 20:57:40 21:02:12 27° 266° (W) 21:06:40 437.490
HO-68 05 Jul 21:03:53 21:09:48 30° 62° (ENE) 21:15:53 435.675
GONETS M04 05 Jul 21:17:01 21:25:09 44° 73° (ENE) 21:33:22
BRITE-PL 05 Jul 21:21:48 21:27:14 67° 76° (ENE) 21:32:20 437.365/2234.400
COMPASS 1 05 Jul 21:22:25 21:23:57 12° 65° (ENE) 21:25:41 437.405
STRAND 1 05 Jul 21:24:21 21:29:29 64° 101° (E) 21:34:34 437.568
CUSAT 1 05 Jul 21:24:47 21:26:37 17° 266° (W) 21:28:23 437.405
PRISM 05 Jul 21:28:01 21:32:13 69° 102° (ESE) 21:36:21 437.425
DOVE 4 05 Jul 21:32:00 21:36:12 31° 71° (ENE) 21:40:15 437.250
CUTE 1.7 + AOD 2 05 Jul 21:33:55 21:37:20 25° 70° (ENE) 21:40:51 437.475
CANX-2 05 Jul 21:37:11 21:40:51 30° 71° (ENE) 21:44:35 2200.000
CUBESAT XI-V 05 Jul 21:42:33 21:46:31 27° 291° (WNW) 21:50:20 437.345
UWE-3 05 Jul 22:06:11 22:07:04 11° 65° (ENE) 22:08:11 435.000/436.395/437.385
CINEMA 3 05 Jul 22:09:49 22:13:48 33° 72° (ENE) 22:17:43 145.822/145.860
SEEDS 05 Jul 22:19:37 22:23:45 68° 76° (ENE) 22:27:57 437.485
AAUSAT CUBESAT 2 05 Jul 22:27:59 22:32:01 56° 75° (ENE) 22:36:07 437.432
GOMX 1 05 Jul 22:30:23 22:35:17 43° 262° (W) 22:39:53 467.674
M-CUBED/EXP-1 PRIME 05 Jul 22:30:59 22:34:22 23° 100° (E) 22:38:00 437.505
DELFI C3 05 Jul 22:36:55 22:39:53 21° 69° (ENE) 22:42:59 145.870
Cosmos 2499 05 Jul 22:37:43 22:44:25 31° 70° (ENE) 22:51:43 435.465 / 435.565
ZACube-1 05 Jul 22:48:28 22:51:50 24° 70° (ENE) 22:55:15 437.345
HO-68 05 Jul 22:50:16 22:57:14 53° 260° (W) 23:04:12 435.675
CUBEBUG 2 05 Jul 22:50:31 22:54:33 42° 73° (ENE) 22:58:32 437.445
Oscar 11 05 Jul 22:53:48 22:57:57 49° 73° (ENE) 23:02:07 145.826/435.025
UKube-1 05 Jul 22:55:00 22:55:40 10° 63° (ENE) 22:56:36 .
COMPASS 1 05 Jul 22:55:05 22:59:11 58° 261° (W) 23:03:17 437.405
HUMSAT D 05 Jul 22:59:20 23:01:19 14° 66° (ENE) 23:03:28 437.325/437.525
BRITE-PL 05 Jul 23:03:00 23:06:10 15° 271° (W) 23:08:58 437.365/2234.400
STRAND 1 05 Jul 23:05:00 23:08:12 16° 297° (WNW) 23:11:12 437.568
PRISM 05 Jul 23:06:03 23:07:08 11° 297° (WNW) 23:07:58 437.425
CUTE 1.7 + AOD 2 05 Jul 23:09:38 23:13:12 26° 266° (W) 23:16:44 437.475
DOVE 4 05 Jul 23:09:52 23:13:58 26° 265° (W) 23:17:49 437.250
CANX-2 05 Jul 23:13:33 23:16:50 21° 267° (W) 23:20:02 2200.000
GONETS M04 05 Jul 23:14:03 23:21:58 40° 272° (W) 23:29:44
AISAT 05 Jul 23:17:19 23:18:49 12° 63° (ENE) 23:20:32 437.250
FUNcube-1 05 Jul 23:23:14 23:27:22 59° 75° (ENE) 23:31:28 145.935
AUBIESAT-1 05 Jul 23:29:30 23:33:48 85° 106° (ESE) 23:38:23 437.475
UWE-3 05 Jul 23:38:55 23:43:09 67° 259° (W) 23:47:18 435.000/436.395/437.385
CINEMA 3 05 Jul 23:47:37 23:51:07 21° 267° (W) 23:54:22 145.822/145.860
ESTCUBE 1 05 Jul 23:52:04 23:55:00 18° 66° (ENE) 23:58:05 437.505/2401.250
VELOX 1 06 Jul 00:03:24 00:07:24 34° 71° (ENE) 00:11:28 145.980
M-CUBED/EXP-1 PRIME 06 Jul 00:05:19 00:09:12 35° 293° (WNW) 00:13:17 437.505
AAUSAT CUBESAT 2 06 Jul 00:06:40 00:08:03 11° 272° (W) 00:09:13 437.432
DX 1 06 Jul 00:07:49 00:12:11 72° 75° (ENE) 00:16:34 434.975-435.025
UNISAT 6 06 Jul 00:08:48 00:11:54 19° 93° (E) 00:15:10 437.425
50 SAT 06 Jul 00:09:01 00:12:35 40° 73° (ENE) 00:16:13 437.505
DELFI C3 06 Jul 00:11:20 00:14:50 28° 264° (W) 00:18:20 145.870
ZACube-1 06 Jul 00:24:33 00:28:08 26° 265° (W) 00:31:38 437.345
UKube-1 06 Jul 00:26:55 00:31:15 76° 258° (WSW) 00:35:37 .
CUBEBUG 2 06 Jul 00:28:53 00:31:30 15° 269° (W) 00:33:54 437.445
Cosmos 2499 06 Jul 00:30:15 00:37:57 55° 268° (W) 00:46:07 435.465 / 435.565
Oscar 11 06 Jul 00:32:10 00:34:28 14° 270° (W) 00:36:34 145.826/435.025
HUMSAT D 06 Jul 00:32:43 00:36:42 48° 261° (W) 00:40:40 437.325/437.525
QB50P1 06 Jul 00:41:03 00:43:39 16° 91° (E) 00:46:24 145.935-145.965
AISAT 06 Jul 00:50:25 00:54:52 71° 258° (WSW) 00:59:21 437.250
ANTELSAT 06 Jul 00:52:25 00:56:45 58° 100° (E) 01:01:12 437.575/2403.000
NANOSAT C BR1 06 Jul 00:54:13 00:57:31 23° 94° (E) 01:00:54 145.865
DUCHIFAT 1 06 Jul 01:00:34 01:04:04 26° 95° (E) 01:07:37 145.980
FUNcube-1 06 Jul 01:03:07 01:04:09 11° 272° (W) 01:04:54 145.935
TIGRISAT 06 Jul 01:04:10 01:08:34 76° 102° (ESE) 01:13:02 435.000
CUBEBUG 1 06 Jul 01:04:18 01:08:45 86° 78° (ENE) 01:13:12 437.445
TISAT 1 06 Jul 01:04:22 01:06:53 16° 66° (ENE) 01:09:33 437.305
POLYITAN 1 06 Jul 01:07:03 01:10:51 32° 97° (E) 01:14:40 437.675
AUBIESAT-1 06 Jul 01:07:05 01:08:05 11° 300° (WNW) 01:08:52 437.475
BUGSAT 1 06 Jul 01:12:16 01:15:25 22° 94° (E) 01:18:37 437.445
ESTCUBE 1 06 Jul 01:27:11 01:31:33 45° 261° (W) 01:35:56 437.505/2401.250
SO-50 06 Jul 01:27:14 01:29:29 13° 35° (NE) 01:31:53 436.795
PCSat 06 Jul 01:35:33 01:40:15 30° 50° (NE) 01:45:00 145.827
QB50P2 06 Jul 01:36:16 01:40:29 74° 102° (ESE) 01:44:42 145.880/145.840
POPSAT HIP 1 06 Jul 01:36:39 01:40:52 72° 101° (ESE) 01:45:03 437.405
VELOX 1 06 Jul 01:40:33 01:44:03 22° 267° (W) 01:47:27 145.980
UNISAT 6 06 Jul 01:44:45 01:48:49 38° 288° (WNW) 01:52:57 437.425
50 SAT 06 Jul 01:45:30 01:47:28 13° 269° (W) 01:49:14 437.505
RS-15 06 Jul 01:49:57 01:54:32 14° 99° (E) 02:00:07 29.354- 29.394
SPROUT 06 Jul 02:01:31 02:05:50 79° 258° (WSW) 02:10:10 437.525
BEESAT 06 Jul 02:05:18 02:07:39 14° 63° (ENE) 02:10:13 436.000
QB50P1 06 Jul 02:15:47 02:19:44 39° 288° (WNW) 02:23:38 145.935-145.965
SWISSCUBE 06 Jul 02:19:47 02:23:18 21° 66° (ENE) 02:26:57 437.505
ITUPSAT 1 06 Jul 02:25:40 02:29:15 22° 67° (ENE) 02:32:58 437.325
NANOSAT C BR1 06 Jul 02:29:44 02:33:22 28° 290° (WNW) 02:36:57 145.865
ANTELSAT 06 Jul 02:30:50 02:33:09 14° 295° (WNW) 02:35:17 437.575/2403.000
DUCHIFAT 1 06 Jul 02:36:21 02:39:49 25° 291° (WNW) 02:43:12 145.980
TISAT 1 06 Jul 02:38:16 02:42:20 44° 261° (W) 02:46:24 437.305
POLYITAN 1 06 Jul 02:43:24 02:46:35 20° 292° (WNW) 02:49:38 437.675
TIGRISAT 06 Jul 02:43:44 02:44:49 11° 296° (WNW) 02:45:38 435.000
BUGSAT 1 06 Jul 02:47:27 02:50:54 27° 290° (WNW) 02:54:15 437.445
SO-50 06 Jul 03:06:01 03:11:00 71° 57° (ENE) 03:15:52 436.795
Cosmos 2491 06 Jul 03:12:11 03:19:57 35° 70° (ENE) 03:27:50 435.465 / 435.565
POPSAT HIP 1 06 Jul 03:15:38 03:16:13 10° 296° (WNW) 03:16:34 437.405
PCSat 06 Jul 03:18:44 03:23:49 41° 248° (WSW) 03:28:49 145.827
BEESAT 06 Jul 03:40:15 03:45:00 66° 259° (W) 03:49:46 436.000
STARS 06 Jul 03:46:35 03:49:01 15° 65° (ENE) 03:51:37 437.465
YUBILEINY 06 Jul 03:46:40 03:52:58 24° 83° (E) 03:59:38 435.215
RS-15 06 Jul 03:54:21 04:05:07 73° 117° (ESE) 04:16:18 29.354- 29.394
SWISSCUBE 06 Jul 03:56:23 04:00:54 41° 262° (W) 04:05:26 437.505
Oscar 19 06 Jul 03:59:16 04:04:25 78° 103° (ESE) 04:09:33 437.125/150
ITUPSAT 1 06 Jul 04:02:24 04:06:55 40° 262° (W) 04:11:25 437.325
ITAMSAT 1 06 Jul 04:14:19 04:18:47 29° 95° (E) 04:23:18 435.822/435.867
Gurwin Techsat 1B 06 Jul 04:16:06 04:20:49 32° 96° (E) 04:25:35 435.225
JAS-2 06 Jul 04:17:38 04:20:24 13° 87° (E) 04:23:48 435.910
KKS-1 06 Jul 04:32:07 04:36:33 76° 76° (ENE) 04:41:01 437.445
AIST 1 06 Jul 04:36:39 04:41:02 81° 264° (W) 04:45:20
SO-50 06 Jul 04:48:27 04:51:00 14° 251° (WSW) 04:53:19 436.795
MOZHAYETS 4 06 Jul 05:01:31 05:04:14 16° 66° (ENE) 05:07:07
Cosmos 2491 06 Jul 05:08:48 05:17:08 50° 270° (W) 05:25:19 435.465 / 435.565
STARS 06 Jul 05:20:48 05:25:05 51° 260° (W) 05:29:23 437.465
HORYU 2 06 Jul 05:26:00 05:29:11 20° 93° (E) 05:32:31 437.375
YUBILEINY 06 Jul 05:40:27 05:49:06 69° 281° (W) 05:57:48 435.215
Oscar 19 06 Jul 05:40:40 05:43:11 13° 298° (WNW) 05:45:28 437.125/150
ITAMSAT 1 06 Jul 05:53:38 05:58:20 34° 291° (WNW) 06:02:55 435.822/435.867
Gurwin Techsat 1B 06 Jul 05:56:06 06:00:46 31° 292° (WNW) 06:05:21 435.225
AO-7 06 Jul 05:57:35 06:05:26 44° 99° (E) 06:13:18 29.400- 29.500
JAS-2 06 Jul 05:59:35 06:06:20 80° 103° (ESE) 06:13:52 435.910
RS-15 06 Jul 06:08:37 06:18:37 37° 323° (NW) 06:28:49 29.354- 29.394
Cosmos 2504 06 Jul 06:25:11 06:30:18 23° 85° (E) 06:35:38 435.465 / 435.565
MOZHAYETS 4 06 Jul 06:36:37 06:41:05 51° 261° (W) 06:45:34
HORYU 2 06 Jul 07:01:50 07:05:59 37° 289° (WNW) 07:10:05 437.375
STRAND 1 06 Jul 07:04:55 07:06:12 11° 60° (ENE) 07:07:47 437.568
CUBESAT XI-V 06 Jul 07:07:56 07:11:55 28° 69° (ENE) 07:15:59 437.345
Cubesat XI-IV 06 Jul 07:36:07 07:39:07 16° 89° (E) 07:42:22 437.490
VERMONT LUNAR 06 Jul 07:41:53 07:43:31 14° 149° (SSE) 07:45:13 437.305
YUBILEINY 06 Jul 07:44:03 07:48:02 13° 304° (NW) 07:51:24 435.215
JAS-2 06 Jul 07:46:12 07:50:55 20° 297° (WNW) 07:55:42 435.910
AO-7 06 Jul 07:50:27 07:58:14 43° 297° (WNW) 08:05:52 29.400- 29.500
Cosmos 2504 06 Jul 08:15:15 08:22:03 54° 282° (WNW) 08:28:50 435.465 / 435.565
PRISM 06 Jul 08:17:19 08:21:17 46° 73° (ENE) 08:25:20 437.425
DANDE 06 Jul 08:20:47 08:24:11 15° 91° (E) 08:27:35 436.750
BEESAT 3 06 Jul 08:22:55 08:26:50 49° 118° (ESE) 08:30:50 437.485
RS-15 06 Jul 08:28:02 08:35:40 20° 356° (N) 08:43:29 29.354- 29.394
AIST 2 06 Jul 08:31:31 08:32:44 11° 109° (ESE) 08:34:12 435.215
BEESAT 2 06 Jul 08:37:20 08:41:20 56° 118° (ESE) 08:45:23 435.950
STRAND 1 06 Jul 08:39:33 08:44:42 86° 76° (ENE) 08:49:54 437.568
CUTE-I 06 Jul 08:39:42 08:45:02 62° 101° (E) 08:50:19 437.470
CUBESAT XI-V 06 Jul 08:45:11 08:49:18 29° 265° (W) 08:53:22 437.345
CUSAT 1 06 Jul 08:46:18 08:51:46 31° 96° (E) 08:56:13 437.405
O/OREOS (USA 219) 06 Jul 08:47:56 08:52:18 62° 109° (ESE) 08:56:44 437.305
ISS 06 Jul 08:59:47 09:02:52 43° 138° (SE) 09:05:58 145.825
Cubesat XI-IV 06 Jul 09:14:27 09:19:46 64° 287° (WNW) 09:25:03 437.490
VERMONT LUNAR 06 Jul 09:16:59 09:20:02 54° 163° (SSE) 09:23:06 437.305
M-CUBED/EXP-1 PRIME 06 Jul 09:19:49 09:22:17 20° 64° (ENE) 09:24:55 437.505
BRITE-PL 06 Jul 09:28:50 09:31:40 18° 91° (E) 09:34:35 437.365/2234.400
PRISM 06 Jul 09:54:42 09:57:02 14° 269° (W) 09:59:11 437.425
PHONESAT 2.4 06 Jul 09:58:12 10:01:11 28° 154° (SSE) 10:04:13 2401.200-2431.200
DANDE 06 Jul 10:00:03 10:07:17 80° 279° (W) 10:12:45 436.750
BEESAT 3 06 Jul 10:02:13 10:05:05 18° 316° (NW) 10:07:53 437.485
SEEDS 06 Jul 10:06:30 10:08:00 12° 89° (E) 10:09:47 437.485
AIST 2 06 Jul 10:06:35 10:10:49 68° 303° (WNW) 10:15:05 435.215
BEESAT 2 06 Jul 10:17:01 10:19:46 17° 317° (NW) 10:22:25 435.950
GONETS M04 06 Jul 10:17:02 10:25:21 51° 90° (E) 10:33:44
AUBIESAT-1 06 Jul 10:17:34 10:20:52 79° 251° (WSW) 10:24:22 437.475
HO-68 06 Jul 10:18:44 10:24:54 31° 95° (E) 10:31:10 435.675
CUTE-I 06 Jul 10:21:04 10:24:39 18° 297° (WNW) 10:28:02 437.470
STRAND 1 06 Jul 10:23:48 10:24:42 10° 274° (W) 10:25:13 437.568
CUSAT 1 06 Jul 10:28:47 10:34:20 32° 283° (WNW) 10:38:39 437.405
O/OREOS (USA 219) 06 Jul 10:29:46 10:32:14 14° 308° (NW) 10:34:32 437.305
GOMX 1 06 Jul 10:32:50 10:36:57 56° 100° (E) 10:41:02 467.674
ISS 06 Jul 10:36:37 10:39:23 25° 335° (NNW) 10:42:09 145.825
COMPASS 1 06 Jul 10:39:28 10:42:48 23° 93° (E) 10:46:12 437.405
RS-15 06 Jul 10:43:38 10:53:19 30° 30° (NNE) 11:03:35 29.354- 29.394
VERMONT LUNAR 06 Jul 10:53:47 10:56:54 82° 359° (N) 11:00:03 437.305
CUTE 1.7 + AOD 2 06 Jul 10:54:28 10:58:40 53° 99° (E) 11:02:53 437.475
M-CUBED/EXP-1 PRIME 06 Jul 10:54:32 10:57:06 20° 261° (W) 10:59:41 437.505
CANX-2 06 Jul 10:58:03 11:02:20 66° 101° (E) 11:06:36 2200.000
BRITE-PL 06 Jul 11:06:32 11:10:26 34° 289° (WNW) 11:14:10 437.365/2234.400
UNISAT 6 06 Jul 11:08:14 11:10:46 16° 67° (ENE) 11:13:28 437.425
DOVE 4 06 Jul 11:08:33 11:12:43 87° 96° (E) 11:16:54 437.250
FUNcube-1 06 Jul 11:14:03 11:15:22 11° 89° (E) 11:16:58 145.935
Cosmos 2499 06 Jul 11:16:15 11:21:02 21° 83° (E) 11:26:08 435.465 / 435.565
UWE-3 06 Jul 11:29:33 11:32:56 24° 94° (E) 11:36:29 435.000/436.395/437.385
QB50P1 06 Jul 11:34:26 11:36:12 13° 65° (ENE) 11:38:09 145.935-145.965
PHONESAT 2.4 06 Jul 11:35:33 11:39:00 83° 170° (S) 11:42:27 2401.200-2431.200
SEEDS 06 Jul 11:40:02 11:44:14 56° 285° (WNW) 11:48:23 437.485
CINEMA 3 06 Jul 11:41:28 11:45:39 90° 289° (WNW) 11:49:56 145.822/145.860
AAUSAT CUBESAT 2 06 Jul 11:46:41 11:50:53 70° 284° (WNW) 11:55:05 437.432
NANOSAT C BR1 06 Jul 11:46:55 11:49:36 17° 67° (ENE) 11:52:26 145.865
DANDE 06 Jul 11:48:49 11:50:51 11° 293° (WNW) 11:52:21 436.750
AIST 2 06 Jul 11:50:00 11:50:16 10° 324° (NW) 11:50:22 435.215
DELFI C3 06 Jul 11:50:25 11:54:12 36° 97° (E) 11:57:59 145.870
ANTELSAT 06 Jul 11:51:03 11:55:08 46° 73° (ENE) 11:59:14 437.575/2403.000
DUCHIFAT 1 06 Jul 11:52:55 11:55:53 19° 68° (ENE) 11:58:58 145.980
DX 1 06 Jul 11:58:41 12:00:27 13° 90° (E) 12:02:28 434.975-435.025
POLYITAN 1 06 Jul 11:59:51 12:03:14 24° 69° (ENE) 12:06:41 437.675
BUGSAT 1 06 Jul 12:02:25 12:05:01 17° 67° (ENE) 12:07:44 437.445
TIGRISAT 06 Jul 12:02:28 12:06:40 60° 75° (ENE) 12:10:53 435.000
HO-68 06 Jul 12:06:02 12:12:53 49° 293° (WNW) 12:19:40 435.675
ZACube-1 06 Jul 12:12:34 12:16:44 56° 100° (E) 12:21:00 437.345
GOMX 1 06 Jul 12:13:00 12:14:41 12° 295° (WNW) 12:16:10 467.674
GONETS M04 06 Jul 12:14:39 12:22:33 35° 290° (WNW) 12:30:16
COMPASS 1 06 Jul 12:14:48 12:18:29 29° 289° (WNW) 12:22:07 437.405
ISS 06 Jul 12:15:27 12:16:39 12° 355° (N) 12:17:50 145.825
UKube-1 06 Jul 12:15:56 12:18:52 18° 92° (E) 12:21:56 .
HUMSAT D 06 Jul 12:17:20 12:20:50 26° 95° (E) 12:24:25 437.325/437.525
Oscar 11 06 Jul 12:17:27 12:21:48 74° 284° (WNW) 12:26:07 145.826/435.025
CUBEBUG 2 06 Jul 12:18:02 12:22:15 75° 284° (WNW) 12:26:34 437.445
QB50P2 06 Jul 12:28:26 12:32:32 50° 74° (ENE) 12:36:40 145.880/145.840
POPSAT HIP 1 06 Jul 12:28:42 12:32:47 49° 74° (ENE) 12:36:54 437.405
VERMONT LUNAR 06 Jul 12:30:43 12:33:48 58° 196° (SSW) 12:36:54 437.305
CUTE 1.7 + AOD 2 06 Jul 12:31:54 12:34:11 14° 294° (WNW) 12:36:17 437.475
CANX-2 06 Jul 12:36:14 12:37:46 11° 295° (WNW) 12:39:04 2200.000
AISAT 06 Jul 12:42:19 12:45:43 22° 94° (E) 12:49:13 437.250
UNISAT 6 06 Jul 12:43:09 12:47:15 44° 261° (W) 12:51:20 437.425
FUNcube-1 06 Jul 12:47:57 12:52:07 57° 285° (WNW) 12:56:21 145.935
CUBEBUG 1 06 Jul 12:55:02 12:57:41 16° 91° (E) 13:00:30 437.445
RS-15 06 Jul 12:56:04 13:07:52 83° 57° (ENE) 13:20:07 29.354- 29.394
UWE-3 06 Jul 13:05:50 13:09:29 28° 289° (WNW) 13:13:08 435.000/436.395/437.385
Cosmos 2499 06 Jul 13:06:35 13:13:34 63° 281° (WNW) 13:20:40 435.465 / 435.565
QB50P1 06 Jul 13:07:27 13:11:38 58° 260° (W) 13:15:49 145.935-145.965
PHONESAT 2.4 06 Jul 13:13:35 13:17:02 90° 318° (NW) 13:20:31 2401.200-2431.200
50 SAT 06 Jul 13:19:15 13:23:10 69° 101° (E) 13:27:05 437.505
ESTCUBE 1 06 Jul 13:20:23 13:24:37 38° 97° (E) 13:28:49 437.505/2401.250
NANOSAT C BR1 06 Jul 13:21:10 13:25:10 40° 262° (W) 13:29:10 145.865
DELFI C3 06 Jul 13:26:15 13:29:01 17° 292° (WNW) 13:31:40 145.870
DUCHIFAT 1 06 Jul 13:27:36 13:31:29 35° 263° (W) 13:35:21 145.980
ANTELSAT 06 Jul 13:29:50 13:32:14 14° 270° (W) 13:34:28 437.575/2403.000
VELOX 1 06 Jul 13:30:18 13:34:43 75° 102° (ESE) 13:39:06 145.980
DX 1 06 Jul 13:32:52 13:37:07 55° 287° (WNW) 13:41:21 434.975-435.025
POLYITAN 1 06 Jul 13:35:22 13:39:03 27° 264° (W) 13:42:40 437.675
BUGSAT 1 06 Jul 13:36:10 13:40:11 42° 262° (W) 13:44:11 437.445
Oscar 19 06 Jul 13:39:37 13:41:54 13° 62° (ENE) 13:44:26 437.125/150
TIGRISAT 06 Jul 13:42:42 13:43:54 11° 272° (W) 13:44:50 435.000
SPROUT 06 Jul 13:49:41 13:52:38 19° 92° (E) 13:55:42 437.525
ZACube-1 06 Jul 13:50:41 13:52:43 13° 294° (WNW) 13:54:33 437.345
UKube-1 06 Jul 13:51:09 13:55:10 37° 289° (WNW) 13:59:08 .
ISS 06 Jul 13:52:11 13:54:06 15° 15° (NNE) 13:56:04 145.825
HUMSAT D 06 Jul 13:53:04 13:56:31 25° 290° (WNW) 13:59:54 437.325/437.525
YUBILEINY 06 Jul 13:59:17 14:00:30 10° 53° (NE) 14:02:30 435.215
QB50P2 06 Jul 14:06:41 14:08:47 13° 270° (W) 14:10:40 145.880/145.840
POPSAT HIP 1 06 Jul 14:06:48 14:09:00 13° 270° (W) 14:10:59 437.405
VERMONT LUNAR 06 Jul 14:08:23 14:10:21 15° 211° (SSW) 14:12:16 437.305
AISAT 06 Jul 14:18:26 14:22:22 32° 290° (WNW) 14:26:14 437.250
TISAT 1 06 Jul 14:23:26 14:27:02 28° 96° (E) 14:30:39 437.305
CUBEBUG 1 06 Jul 14:30:10 14:34:19 42° 287° (WNW) 14:38:22 437.445
PHONESAT 2.4 06 Jul 14:51:42 14:54:55 36° 203° (SSW) 14:58:08 2401.200-2431.200
ESTCUBE 1 06 Jul 14:57:50 15:01:15 21° 293° (WNW) 15:04:33 437.505/2401.250
VELOX 1 06 Jul 15:09:29 15:10:43 11° 297° (WNW) 15:11:43 145.980
AO-7 06 Jul 15:09:36 15:12:32 13° 46° (NE) 15:15:59 29.400- 29.500
RS-15 06 Jul 15:09:57 15:19:21 27° 256° (WSW) 15:28:24 29.354- 29.394
Oscar 19 06 Jul 15:15:32 15:20:41 78° 257° (WSW) 15:25:50 437.125/150
SPROUT 06 Jul 15:24:56 15:28:52 36° 289° (WNW) 15:32:45 437.525
ISS 06 Jul 15:27:52 15:31:04 55° 34° (NE) 15:34:15 145.825
ITAMSAT 1 06 Jul 15:31:35 15:36:27 42° 70° (ENE) 15:41:23 435.822/435.867
Gurwin Techsat 1B 06 Jul 15:36:30 15:41:34 49° 72° (ENE) 15:46:43 435.225
BEESAT 06 Jul 15:41:17 15:45:35 33° 96° (E) 15:49:55 436.000
YUBILEINY 06 Jul 15:51:11 15:59:48 59° 77° (ENE) 16:08:28 435.215
SWISSCUBE 06 Jul 15:56:56 16:01:38 52° 100° (E) 16:06:19 437.505
TISAT 1 06 Jul 15:59:19 16:02:41 23° 291° (WNW) 16:05:57 437.305
ITUPSAT 1 06 Jul 16:03:11 16:07:55 54° 100° (E) 16:12:38 437.325
Cosmos 2491 06 Jul 16:12:35 16:20:33 42° 88° (E) 16:28:40 435.465 / 435.565
JAS-2 06 Jul 16:13:21 16:17:37 27° 66° (ENE) 16:22:12 435.910
PCSat 06 Jul 16:17:06 16:21:34 28° 109° (ESE) 16:26:10 145.827
HORYU 2 06 Jul 16:24:16 16:27:10 18° 66° (ENE) 16:30:13 437.375
KKS-1 06 Jul 16:25:10 16:27:39 15° 91° (E) 16:30:19 437.445
